Погода в Самарканде

Погода в Самарканде : погода сейчас, прогноз погоды и архив. Всё, что Вы хотите узнать о погоде в Самарканде!

Поиск расширенной информации на нашем сайте:

Другие новости

Новости СМИ2

Главная страница сайта

Новости сайта

03.07.2017

Напоминаем, что на нашем специализированном сайте Метеоцентр.Азия вы можете получить высокодетализированные автоматические прогнозы погоды по пунктам России, СНГ и мира в авиационном формате (включающие направление и скорость ветра, видимость, явления погоды, количество и форму облачности, нижнюю и верхнюю границу облачности).


Погода в Самарканде - сегодня

Время (UTC), дата Ветер
(°,м/с) 
Видим.   Явления Облачность Т
(°С)
Тd
(°С)
f(%) Тe
(°С)
Pmin
(гПа)
dP
(гПа)
Po
(мм)
O2
(г/м3)
Тmin Tmax R s Состояние
почвы
09 13.01.18 250 (З) 20000 м    8/4 600 м средняя 
[Sc|Ac und]
+14.2 -9 19 +14  1016.1  0.3  700  269           
12 13.01.18 090 (В) 1000 м    10/10 1000 м 
[Sc]
+8.8 +1.3 59 +10  1018.2  0.9  722  282           
15 13.01.18 340 (С) н/о    5/0 средняя 
[Ac As]
+9.6 -5 35 +10  1020.8  1.3  702  274    +14.9       
18 13.01.18 140 (ЮВ) н/о    ясно 
+4.7 -0.4 69 +6  1023.5  1.1  703  278    +14.9       
21 13.01.18 тихо ()   н/о    ясно 
+1.8 -0.4 85 +2  1025.2  0.7  703  281           
00 14.01.18 200 (Ю) н/о    ясно 
+2.3 -0.2 84 +3  1025  703  281           
03 14.01.18 090 (В) 10 км    10/10 600 м 
[Sc]
+1.8 -1 82 +3  1027.8  2.4  705  282           
06 14.01.18 тихо ()   20000 м    8/3 1000 м средняя, верхняя 
[Sc|Ac cast|Ci fib]
+4.8 -0.5 69 +5  1027.6  0.7  706  279  +1.3         
09 14.01.18 290 (З) 20000 м    8/3 1000 м средняя, верхняя 
[Sc|Ac lent|Cs]
+7.3 +0.2 61 +7  1024.8  -1.8  704  276           
12 14.01.18 290 (З) 20000 м    8/0 верхняя 
[Cs]
+6.5 -0.9 59 +6  1024.8  -0.3  704  277           
15 14.01.18 340 (С) н/о    ясно 
+2.4 -0.9 79 +3  1027  0.8  705  281    +8.5       
18 14.01.18 тихо ()   н/о    ясно 
+0.6 -2 83 +1  1026.9  -0.7  704  283    +8.5       
21 14.01.18 230 (ЮЗ) н/о    4/0 верхняя 
[Ci fib]
+0.8 -1.8 83 +1  1027  0.2  704  283           
00 15.01.18 160 (Ю) н/о    3/0 верхняя 
[Ci fib]
+0.6 -1.7 85 +1  1025.1  -1.8  703  283           
03 15.01.18 140 (ЮВ) н/о    8/0 средняя, верхняя 
[Ac As|Ci]
+0 -2.1 86 -1  1025.3  703  283           
06 15.01.18 070 (В) 20000 м    8/0 верхняя 
[Ci ing]
+0.4 -1.6 86 -1  1025.1  -0.1  703  283  -0.1         
09 15.01.18 360 (С) 20000 м    8/0 средняя, верхняя 
[Ac lent|Ci]
+1.9 -1.5 78 1021.8  -2.5  701  281           
12 15.01.18 160 (Ю) 20000 м    10/0 средняя, верхняя 
[Ac As|Ci fib]
-0.8 -2.9 86 -3  1021.7  -1  700  283           
15 15.01.18 090 (В) н/о    10/0 средняя 
[Ac As]
-2.5 -3.4 94 -6  1021.4  -0.7  700  285    +3.2       
18 15.01.18 110 (В) н/о    10/10 1000 м 
[Sc]
-2.8 -3.5 95 -5  1021.2  -0.3  700  285    +3.2       
21 15.01.18 110 (В) н/о    10/10 1000 м 
[Sc]
-3.2 -3.6 97 -5  1023.3  1.7  701  286           
00 16.01.18 110 (В) н/о    8/0 средняя 
[Ac As]
-3.2 -3.9 95 -4  1024.2  0.9  702  286           
03 16.01.18 110 (В) 10 км    10/10 600 м 
[Frnb]
-2.8 -3.5 95 -2  1025.6  1.4  703  286           
06 16.01.18 020 (С) 10 км    10/10 1000 м 
[Sc]
-2.9 -3.3 97 -4  1027.3  1.6  704  287  -3.7         
09 16.01.18 070 (В) 10 км    10/10 1000 м 
[Sc]
-3.5 -4.3 94 -5  1026.9  -1.2  703  287           
Время (UTC), дата Ветер
(°,м/с) 
Видим.   Явления Облачность Т
(°С)
Тd
(°С)
f(%) Тe
(°С)
Pmin
(гПа)
dP
(гПа)
Po
(мм)
O2
(г/м3)
Тmin Tmax R s Состояние
почвы

Для получения пояснительной информации подведите курсор к названию столбца.

ПОГОДА в Самарканде - архив

Всё, что Вы хотите узнать о погоде в Самарканде - удобно и подробно!

Выберите нужную дату (начиная с 1 января 2015* года) и нажмите кнопку "Найти".
Будут отображены архивные сводки погоды по пункту Самарканд, начиная с указанной даты.


Отображать данные в формате CSV (для использования в таблицах Excel)


Внимание! Наш архив погоды предназначен исключительно для личного некоммерческого использования в познавательных целях. Если Вам необходимы официальные справки о состоянии погоды (для производственных, юридических, коммерческих и т.п. целей), обращайтесь в органы Росгидромета.

*Примечание: данная дата относится к архиву по метеостанциям СССР (Россия, СНГ, Балтия).
Архив по метеостанциям Зарубежной Европы и Азии (кроме Китая) хранится 10 дней, по другим регионам земного шара (Китай, Африка, Америка, Австралия, Океания) - 1 день.

Самарканд - район местоположения метеостанции


Название, широта, долгота, высота метеостанции:
Самарканд (город) 39.6°ш. 66.9°д. 724 м над ур. моря [Узбекистан]

Дополнительная информация

В oтличие oт бoльшинства пoгoдных сайтoв мы публикуем пoдрoбную метеoинфoрмацию в детальнoм прoфессиoнальнoм фoрмате.

Характеристики температуры и влажнoсти вoздуха измеряются на высoте 2 м в тени вдали oт зданий и деревьев.
Скoрoсть ветра измеряется на высoте 10 м (на урoвне рoста челoвека скoрoсть ветра ниже в 1.5-2 раза). Если метеoстанция нахoдится в гoрoде или в лесу, тo скoрoсть ветра занижена на 2-4 м/с пo сравнению с oткрытым местoм. Скoрoсть ветра над акватoриями крупных рек и oзёр, а также на вершинах хoлмoв на 2-5 м/с выше, чем в oбычных услoвиях.
Атмoсфернoе давление в разных тoчках местнoсти мoжет значительнo oтличаться oт давления на метеoстанции, в зависимoсти oт услoвий рельефа (при пoдъёме на 10 м давление пoнижается примернo на 1 мм рт.ст.).